Location: Austin
(30.3000°N, 97.7500°W)
Time: 10:50:50
(UTC-05:00)

Cosmos 1536 - Pass Details

Date: 03 April 2024
Orbit: 516 x 544 km, 82.6° (Epoch: 21 April)

Event Time Altitude Azimuth Distance (km) Brightness Sun altitude
Rises 05:23:47 0° 3° (N) 2,672 6.7 -24.4°
Reaches altitude 10° 05:26:03 10° 11° (N) 1,774 5.8 -24.0°
Maximum altitude 05:29:43 40° 81° (E) 787 4.0 -23.3°
Drops below altitude 10° 05:33:20 10° 152° (SSE) 1,748 5.4 -22.5°
Sets 05:35:33 0° 160° (SSE) 2,627 6.3 -22.1°
